Weather History for Quakertown, PA

Change the Weather History Date:

Wednesday, October 10, 2012

  Actual Average (KABE) Record (KABE)
Temperature  
Mean Temperature 57 °F 54 °F  
Max Temperature 64 °F 66 °F 89 °F (1949)
Min Temperature 50 °F 43 °F 30 °F (1929)
Degree Days  
Heating Degree Days 8 11  
Month to date heating degree days 95  
Since 1 July heating degree days 210  
Cooling Degree Days 0 0  
Month to date cooling degree days 3  
Year to date cooling degree days 753  
Growing Degree Days 7 (Base 50)    
Moisture  
Dew Point 49 °F    
Average Humidity 78    
Maximum Humidity 100    
Minimum Humidity 48    
Precipitation  
Precipitation 0.00 in 0.14 in 1.76 in (1971)
Month to date precipitation 1.41  
Year to date precipitation 35.80  
Snow  
Snow 0.00 in 0.00 in 1.00 in (1979)
Month to date snowfall 0.0  
Since 1 July snowfall 0.0  
Since 1 September snowfall 0.0  
Snow Depth -    
Sea Level Pressure  
Sea Level Pressure 29.95 in    
Wind  
Wind Speed 2 mph (SSW)    
Max Wind Speed 12 mph    
Max Gust Speed 21 mph    
Visibility 7 miles    
Events      
T = Trace of Precipitation, MM = Missing Value Source: NWS Daily Summary

Daily Weather History Graph

Daily Weather History Graph

Search for Another Location

Airport:

Trip Planner

Search our weather history database for the weather conditions in past years. The results will help you decide how hot, cold, wet, or windy it might be!

Date:

Astronomy

Oct. 10, 2012 Rise Set
Actual Time 7:07 AM EDT 6:28 PM EDT
Civil Twilight 6:40 AM EDT 6:55 PM EDT
Nautical Twilight 6:08 AM EDT 7:27 PM EDT
Astronomical Twilight 5:37 AM EDT 7:58 PM EDT
Moon 1:40 AM EDT (10/10) 3:30 PM EDT (10/10)
Length of Visible Light 12h 15m
Length of Day
11h 20m
Waning Crescent, 27% of the Moon is Illuminated
Oct 10
Waning Crescent
Oct 15
New
Oct 21
First Quarter
Oct 29
Full
Nov 6
Last Quarter

Hourly Weather History & Observations

Time (EDT) Temp. Dew Point Humidity Pressure Visibility Wind Dir Wind Speed Gust Speed Precip Events Conditions
12:15 AM 53.6 °F 53.6 °F 100% 30.08 in 2.0 mi Calm Calm - N/A   Overcast
12:35 AM 53.6 °F 53.6 °F 100% 30.08 in 2.0 mi Calm Calm - N/A   Overcast
12:55 AM 53.6 °F 53.6 °F 100% 30.07 in 1.8 mi Calm Calm - N/A   Overcast
1:15 AM 53.6 °F 53.6 °F 100% 30.07 in 3.0 mi Calm Calm - N/A   Overcast
1:35 AM 53.6 °F 53.6 °F 100% 30.06 in 3.0 mi Calm Calm - N/A   Overcast
1:55 AM 53.6 °F 53.6 °F 100% 30.05 in 3.0 mi Calm Calm - N/A   Overcast
2:15 AM 53.6 °F 53.6 °F 100% 30.05 in 4.0 mi Calm Calm - N/A   Overcast
2:35 AM 53.6 °F 53.6 °F 100% 30.04 in 2.0 mi Calm Calm - N/A   Overcast
2:55 AM 53.6 °F 53.6 °F 100% 30.03 in 4.0 mi Calm Calm - N/A   Overcast
3:15 AM 53.6 °F 53.6 °F 100% 30.02 in 4.0 mi Calm Calm - N/A   Overcast
3:35 AM 53.6 °F 53.6 °F 100% 30.01 in 4.0 mi Calm Calm - N/A   Overcast
3:55 AM 53.6 °F 53.6 °F 100% 30.01 in 3.0 mi Calm Calm - N/A   Overcast
4:15 AM 53.6 °F 53.6 °F 100% 30.01 in 2.5 mi Calm Calm - N/A   Overcast
4:35 AM 53.6 °F 53.6 °F 100% 30.00 in 1.2 mi Calm Calm - N/A   Overcast
4:55 AM 53.6 °F 53.6 °F 100% 29.99 in 2.5 mi Calm Calm - N/A   Overcast
5:15 AM 53.6 °F 53.6 °F 100% 29.99 in 0.5 mi Calm Calm - N/A   Overcast
5:35 AM 53.6 °F 53.6 °F 100% 29.98 in 0.5 mi Calm Calm - N/A   Overcast
5:55 AM 53.6 °F 53.6 °F 100% 29.99 in 0.8 mi Calm Calm - N/A   Overcast
6:15 AM 53.6 °F 53.6 °F 100% 29.98 in 1.0 mi Calm Calm - N/A   Overcast
6:35 AM 53.6 °F 53.6 °F 100% 29.97 in 1.2 mi Calm Calm - N/A   Overcast
6:55 AM 53.6 °F 53.6 °F 100% 29.97 in 2.0 mi Calm Calm - N/A   Overcast
7:15 AM 55.4 °F 55.4 °F 100% 29.98 in 3.0 mi Calm Calm - N/A   Overcast
7:35 AM 55.4 °F 55.4 °F 100% 29.98 in 3.0 mi Calm Calm - N/A   Overcast
7:55 AM 55.4 °F 55.4 °F 100% 29.98 in 2.5 mi Calm Calm - N/A   Overcast
8:15 AM 55.4 °F 55.4 °F 100% 29.98 in 0.2 mi Calm Calm - N/A   Overcast
8:55 AM 55.4 °F 55.4 °F 100% 29.97 in 1.8 mi Calm Calm - N/A   Overcast
9:35 AM 55.4 °F 55.4 °F 100% 29.96 in 10.0 mi Calm Calm - N/A   Overcast
9:55 AM 57.2 °F 55.4 °F 94% 29.96 in 10.0 mi Calm Calm - N/A   Overcast
10:15 AM 57.2 °F 55.4 °F 94% 29.96 in 10.0 mi Calm Calm - N/A   Overcast
10:35 AM 57.2 °F 55.4 °F 94% 29.95 in 10.0 mi South 4.6 mph - N/A   Overcast
10:55 AM 57.2 °F 55.4 °F 94% 29.95 in 10.0 mi Calm Calm - N/A   Overcast
11:15 AM 59.0 °F 55.4 °F 88% 29.94 in 10.0 mi South 4.6 mph - N/A   Overcast
11:35 AM 59.0 °F 55.4 °F 88% 29.93 in 10.0 mi South 9.2 mph - N/A   Overcast
11:55 AM 59.0 °F 53.6 °F 82% 29.93 in 10.0 mi SSW 9.2 mph - N/A   Overcast
12:15 PM 62.6 °F 53.6 °F 72% 29.92 in 10.0 mi SSW 8.1 mph - N/A   Mostly Cloudy
12:55 PM 62.6 °F 51.8 °F 68% 29.91 in 9.0 mi South 10.4 mph 17.3 mph N/A   Mostly Cloudy
1:15 PM 62.6 °F 50.0 °F 63% 29.90 in 9.0 mi SSW 11.5 mph 18.4 mph N/A   Scattered Clouds
1:35 PM 64.4 °F 48.2 °F 56% 29.89 in 10.0 mi South 11.5 mph 17.3 mph N/A   Mostly Cloudy
1:55 PM 64.4 °F 50.0 °F 59% 29.87 in 10.0 mi SSW 8.1 mph 19.6 mph N/A   Mostly Cloudy
2:15 PM 62.6 °F 50.0 °F 63% 29.87 in 10.0 mi SSW 4.6 mph - N/A   Mostly Cloudy
2:35 PM 62.6 °F 48.2 °F 59% 29.86 in 10.0 mi SSW 4.6 mph - N/A   Mostly Cloudy
2:55 PM 64.4 °F 46.4 °F 52% 29.86 in 10.0 mi SSW 6.9 mph 17.3 mph N/A   Mostly Cloudy
3:15 PM 62.6 °F 46.4 °F 55% 29.86 in 10.0 mi SSW 6.9 mph - N/A   Mostly Cloudy
3:35 PM 64.4 °F 46.4 °F 52% 29.86 in 10.0 mi SSW 8.1 mph 16.1 mph N/A   Scattered Clouds
3:55 PM 64.4 °F 46.4 °F 52% 29.85 in 10.0 mi SSW 6.9 mph 16.1 mph N/A   Scattered Clouds
4:15 PM 64.4 °F 46.4 °F 52% 29.85 in 10.0 mi SSW 8.1 mph - N/A   Partly Cloudy
4:35 PM 64.4 °F 44.6 °F 49% 29.85 in 10.0 mi SSW 6.9 mph - N/A   Clear
4:55 PM 62.6 °F 42.8 °F 48% 29.85 in 10.0 mi SSW 5.8 mph - N/A   Clear
5:15 PM 62.6 °F 44.6 °F 52% 29.85 in 10.0 mi SW 9.2 mph - N/A   Clear
5:35 PM 62.6 °F 44.6 °F 52% 29.86 in 10.0 mi SSW 6.9 mph - N/A   Clear
5:55 PM 59.0 °F 44.6 °F 59% 29.86 in 10.0 mi Calm Calm - N/A   Clear
6:15 PM 59.0 °F 44.6 °F 59% 29.86 in 10.0 mi Calm Calm - N/A   Mostly Cloudy
6:35 PM 59.0 °F 44.6 °F 59% 29.86 in 10.0 mi Calm Calm - N/A   Overcast
6:55 PM 59.0 °F 46.4 °F 63% 29.87 in 10.0 mi Calm Calm - N/A   Overcast
7:15 PM 57.2 °F 46.4 °F 67% 29.88 in 10.0 mi Calm Calm - N/A   Overcast
7:35 PM 57.2 °F 46.4 °F 67% 29.90 in 10.0 mi SW 3.5 mph - N/A   Overcast
7:55 PM 59.0 °F 46.4 °F 63% 29.91 in 10.0 mi WSW 9.2 mph - N/A   Overcast
8:15 PM 57.2 °F 44.6 °F 63% 29.92 in 10.0 mi SW 10.4 mph 19.6 mph N/A   Overcast
8:35 PM 57.2 °F 41.0 °F 55% 29.94 in 10.0 mi SW 6.9 mph 20.7 mph N/A   Mostly Cloudy
8:55 PM 55.4 °F 41.0 °F 58% 29.94 in 10.0 mi SW 10.4 mph 19.6 mph N/A   Scattered Clouds
9:15 PM 55.4 °F 41.0 °F 58% 29.96 in 10.0 mi SW 11.5 mph - N/A   Scattered Clouds
9:35 PM 55.4 °F 41.0 °F 58% 29.97 in 10.0 mi SW 5.8 mph 18.4 mph N/A   Scattered Clouds
9:55 PM 53.6 °F 41.0 °F 62% 29.98 in 10.0 mi SW 8.1 mph - N/A   Partly Cloudy
10:15 PM 53.6 °F 41.0 °F 62% 29.99 in 10.0 mi SW 5.8 mph - N/A   Partly Cloudy
10:35 PM 51.8 °F 39.2 °F 62% 30.01 in 10.0 mi SW 9.2 mph - N/A   Partly Cloudy
10:55 PM 51.8 °F 37.4 °F 58% 30.02 in 10.0 mi SW 3.5 mph - N/A   Mostly Cloudy
11:15 PM 50.0 °F 37.4 °F 62% 30.02 in 10.0 mi SW 5.8 mph - N/A   Partly Cloudy
11:35 PM 50.0 °F 37.4 °F 62% 30.03 in 10.0 mi SW 6.9 mph - N/A   Clear
11:55 PM 50.0 °F 37.4 °F 62% 30.03 in 10.0 mi SW 3.5 mph - N/A   Clear